Regional Weather Roundup
Issued by NWS

Home | Current Version | Previous Version | Graphics & Text | Print | Product List | Glossary On
Versions: 1 2 3 4 5 6 7 8 9 10 11 12 13 14 15 16 17 18 19 20 21 22 23 24 25 26 27 28 29 30 31 32 33 34 35 36 37 38 39 40 41 42 43 44 45 46 47 48 49 50
000
ASUS43 KDMX 180506
RWRIA

WEATHER ROUNDUP FOR IOWA
NATIONAL WEATHER SERVICE DES MOINES IA
1100 PM CST FRI NOV 17 2017

NOTE: "FAIR" INDICATES FEW OR NO CLOUDS BELOW 12,000 FEET WITH NO
SIGNIFICANT WEATHER AND/OR OBSTRUCTIONS TO VISIBILITY.

* - THESE STATIONS ARE NOT NWS STATIONS...THUS NOT UNDER NWS
QUALITY CONTROL.  THEY ALSO DO NOT REPORT WEATHER SUCH
AS PRECIPITATION OR FOG.

IAZ001>003-012>014-020>022-031>034-043>046-180600-
   NORTHWEST IOWA

CITY           SKY/WX    TMP DP  RH WIND       PRES   REMARKS
CARROLL *      CLOUDY    43  43 100 N16       29.59R FOG
CHEROKEE *     RAIN      39  38  94 N10       29.67R WCI  32
DENISON *      CLOUDY    43  41  93 N13G20    29.66R
LE MARS *      LGT RAIN  39  37  93 N9        29.69R WCI  33
ORANGE CITY *  DRIZZLE   39  37  93 N10       29.67S WCI  32
SHELDON *      CLOUDY    37  34  87 N10       29.66S WCI  30
SIOUX CITY     LGT RAIN  41  39  93 N9        29.68R
SPENCER        CLOUDY    39  36  89 N10       29.67R WCI  32
STORM LAKE *   LGT RAIN  39  37  93 N15G21    29.62S WCI  31
$$

IAZ055>058-069>071-079>083-090>094-180600-
   SOUTHWEST IOWA

CITY           SKY/WX    TMP DP  RH WIND       PRES   REMARKS
ATLANTIC *     CLOUDY    50  50 100 NE13      29.56R FOG
AUDUBON *      CLOUDY    45  43  93 N13G24    29.58R FOG
CLARINDA *     CLOUDY    54  54 100 N13         N/A  FOG
COUNCIL BLFS * CLOUDY    48  48 100 N14       29.60R FOG
CRESTON *      CLOUDY    52  50  93 N14       29.53F FOG
HARLAN  *      CLOUDY    46  46 100 N20       29.64R
LAMONI         FOG       53  53 100 N7        29.50F VSB 1/4
RED OAK *      CLOUDY    50  50 100 NE9       29.54S FOG
SHENANDOAH *   MOCLDY    54  52  94 N10       29.56R FOG
$$

IAZ047>049-059>061-072>074-084-180600-
   CENTRAL IOWA

CITY           SKY/WX    TMP DP  RH WIND       PRES   REMARKS
AMES           CLOUDY    44  44 100 N9        29.57F FOG
ANKENY *       CLOUDY    45  45 100 N8        29.56F FOG
BOONE *        FOG       43  43 100 N13       29.56F VSB 1/4
CHARITON *     FOG       52  52 100 N8        29.52S VSB<1/4
DES MOINES     FOG       47  47 100 N7        29.54F VSB 3/4
GRINNELL*      CLOUDY    44  43  97 N10       29.56S FOG
KNOXVILLE *    FOG       48  48 100 NE7       29.52S VSB 1/4
MARSHALLTOWN   FOG       42  41  96 NE9       29.54F VSB 1
NEWTON *       FOG       45  45 100 NE12      29.54F VSB 3/4
PELLA *        FOG       46  46  97 N10       29.54F VSB 3/4
PERRY *        FOG       46  46  99 N10G16    29.57S VSB 1
$$

IAZ004>006-015-016-023>025-035-036-180600-
   NORTH CENTRAL IOWA

CITY           SKY/WX    TMP DP  RH WIND       PRES   REMARKS
ALGONA *       CLOUDY    39  39 100 N10       29.62S FOG     WCI  32
CLARION *      CLOUDY    41  41 100 N12       29.61R
ESTHERVILLE    CLOUDY    37  37 100 N10       29.66R FOG     WCI  30
FORT DODGE *   LGT RAIN  41  40  96 NE13      29.59F
MASON CITY     CLOUDY    38  37  97 N14       29.61F WCI  30
FOREST CITY *  CLOUDY    37  37 100 N10       29.61S FOG     WCI  30
WEBSTER CITY * MIX PCPN  41  41 100 N17       29.56F
IOWA FALLS *   DRZL/FOG  42  41  98 N6        29.61R VSB 1/2
$$

IAZ007>011-017>019-026>030-037>042-050>054-066-180600-
   NORTHEAST IOWA

CITY           SKY/WX    TMP DP  RH WIND       PRES   REMARKS
CEDAR RAPIDS   FOG       43  43 100 N8        29.55F VSB 1
CHARLES CITY * FOG       39  39 100 N9        29.60F VSB 1/2 WCI  33
CLINTON *      LGT RAIN  43  43 100 NE8       29.56F FOG
DECORAH *      FOG       37  37 100 CALM      29.59R VSB 1
DUBUQUE        FOG       39  39 100 NE7       29.56F VSB 1/4 WCI  34
MONTICELLO *   CLOUDY    41  41 100 N3        29.57R FOG
OELWEIN *      FOG       39  39 100 NE8       29.57F VSB 1/2 WCI  34
WATERLOO       FOG       39  39 100 NE6       29.57F VSB 3/4 WCI  35
$$

IAZ064-065-067-068-078-180600-
   EAST CENTRAL IOWA

CITY           SKY/WX    TMP DP  RH WIND       PRES   REMARKS
DAVENPORT      CLOUDY    46  44  93 N6        29.57S FOG
IOWA CITY      CLOUDY    47  44  90 N6        29.57S FOG
MT. PLEASANT * CLOUDY    49  48  95 CALM      29.53S
MUSCATINE *    CLOUDY    46  45  93 N5        29.54F FOG
QUAD CITIES    CLOUDY    52  47  83 CALM      29.53F
$$

IAZ062-063-075>077-085>089-095>099-180600-
   SOUTHEAST IOWA

CITY           SKY/WX    TMP DP  RH WIND       PRES   REMARKS
BURLINGTON     CLOUDY    51  49  92 CALM      29.52F
FAIRFIELD *    CLOUDY    48  46  93 NE6       29.52S
FORT MADISON * CLOUDY    52  48  87 CALM      29.52F
KEOKUK *       CLOUDY    54  52  94 CALM      29.50F
OSKALOOSA *    CLOUDY    47  46  96 N6        29.53S FOG
OTTUMWA        CLOUDY    49  46  90 N5        29.52F
WASHINGTON *   CLOUDY    48  46  93 N5        29.54F FOG
$$

ABBREVIATIONS USED IN REMARKS
   TC - TEMPERATURES IN CELSIUS
  WCI - WIND CHILL INDEX
   HX - HEAT INDEX
  VSB - VISIBILITY
$$





USA.gov is the U.S. government's official web portal to all federal, state and local government web resources and services.